This is the latest recevied weather packets stored in our database for station/object N8XE-13. If no packets are shown the sender has not sent any weather packets the latest 10 day(s).
| Time | Temp. | Humidity | Pressure | Rain* | Wind** | Luminosity | Snow |
|---|---|---|---|---|---|---|---|
| 1777504476 | 15° C | 77% | - | 0 mm | - | - | - |
| 1777504172 | 14.44° C | 77% | - | 0 mm | - | - | - |
| 1777503868 | 14.44° C | 79% | - | 0 mm | - | - | - |
| 1777503564 | 13.89° C | 79% | - | 0 mm | - | - | - |
| 1777503261 | 13.89° C | 79% | - | 0 mm | - | - | - |
| 1777502957 | 14.44° C | 80% | - | 0 mm | - | - | - |
| 1777502655 | 14.44° C | 81% | - | 0 mm | - | - | - |
| 1777502352 | 14.44° C | 81% | - | 0 mm | - | - | - |
| 1777502048 | 15° C | 83% | - | 1.27 mm | - | - | - |
| 1777501745 | 14.44° C | 84% | - | 1.27 mm | - | - | - |
| 1777501443 | 14.44° C | 85% | - | 0 mm | - | - | - |
| 1777501139 | 13.89° C | 85% | - | 0 mm | - | - | - |
| 1777500838 | 14.44° C | 84% | - | 0 mm | - | - | - |
| 1777500535 | 15° C | 81% | - | 0 mm | - | - | - |
| 1777500231 | 15.56° C | 78% | - | 0 mm | - | - | - |
| 1777499928 | 15.56° C | 77% | - | 0 mm | - | - | - |
| 1777499624 | 16.11° C | 76% | - | 0 mm | - | - | - |
| 1777499322 | 16.11° C | 76% | - | 0 mm | - | - | - |
| 1777499019 | 16.11° C | 77% | - | 0 mm | - | - | - |
| 1777498715 | 16.11° C | 76% | - | 0 mm | - | - | - |
| 1777498412 | 16.11° C | 76% | - | 0 mm | - | - | - |
| 1777498109 | 16.11° C | 74% | - | 0 mm | - | - | - |
| 1777497806 | 16.67° C | 74% | - | 0 mm | - | - | - |
| 1777497502 | 16.11° C | 74% | - | 0 mm | - | - | - |
| 1777497199 | 16.67° C | 75% | - | 0 mm | - | - | - |
* Rain latest hour (hover to see other rain measurements)
** Current wind speed in m/s (hover to see current wind gust speed)